Time,TemperatureF,DewpointF,PressureIn,WindDirection,WindDirectionDegrees,WindSpeedMPH,WindSpeedGustMPH,Humidity,HourlyPrecipIn,Conditions,Clouds,dailyrainin,SoftwareType,DateUTC
2013-06-11 00:02:00,56.5,52.9,29.71,East,96,6.0,18.0,88,0.00,,,0.02,meteohub,2013-06-10 23:02:00,
2013-06-11 00:12:00,56.1,52.9,29.71,SE,128,6.0,13.0,89,0.00,,,0.00,meteohub,2013-06-10 23:12:00,
2013-06-11 00:22:00,55.9,53.1,29.71,ESE,113,1.0,18.0,90,0.01,,,0.00,meteohub,2013-06-10 23:22:00,
2013-06-11 00:27:00,55.9,53.1,29.71,ESE,121,6.0,18.0,90,0.01,,,0.01,meteohub,2013-06-10 23:27:00,
2013-06-11 00:32:00,55.8,53.2,29.71,SE,138,9.0,18.0,91,0.01,,,0.01,meteohub,2013-06-10 23:32:00,
2013-06-11 00:37:00,55.8,53.2,29.70,ESE,117,4.0,14.0,91,0.01,,,0.01,meteohub,2013-06-10 23:37:00,
2013-06-11 00:42:00,55.8,53.2,29.70,SE,135,5.0,14.0,91,0.01,,,0.01,meteohub,2013-06-10 23:42:00,
2013-06-11 00:47:00,55.6,53.1,29.70,SE,128,11.0,15.0,91,0.02,,,0.02,meteohub,2013-06-10 23:47:00,
2013-06-11 00:52:00,55.6,53.1,29.70,SE,128,9.0,15.0,91,0.02,,,0.02,meteohub,2013-06-10 23:52:00,
2013-06-11 01:02:00,55.6,53.2,29.70,ESE,115,6.0,14.0,92,0.02,,,0.02,meteohub,2013-06-11 00:02:00,
2013-06-11 01:07:00,55.4,53.1,29.70,SE,128,5.0,13.0,92,0.02,,,0.02,meteohub,2013-06-11 00:07:00,
2013-06-11 01:12:00,55.4,53.1,29.70,ESE,115,9.0,13.0,92,0.02,,,0.02,meteohub,2013-06-11 00:12:00,
2013-06-11 01:17:00,55.2,52.9,29.69,ESE,113,4.0,15.0,92,0.02,,,0.02,meteohub,2013-06-11 00:17:00,
2013-06-11 01:22:00,55.2,52.9,29.69,SE,124,4.0,15.0,92,0.02,,,0.02,meteohub,2013-06-11 00:22:00,
2013-06-11 01:27:00,55.2,52.9,29.69,ESE,121,4.0,15.0,92,0.02,,,0.02,meteohub,2013-06-11 00:27:00,
2013-06-11 01:32:00,55.2,52.9,29.69,SE,143,8.0,11.0,92,0.02,,,0.02,meteohub,2013-06-11 00:32:00,
2013-06-11 01:37:00,55.0,53.1,29.69,ESE,123,4.0,13.0,93,0.02,,,0.03,meteohub,2013-06-11 00:37:00,
2013-06-11 01:42:00,55.0,53.1,29.69,ESE,117,10.0,13.0,93,0.02,,,0.03,meteohub,2013-06-11 00:42:00,
2013-06-11 01:47:00,55.0,53.1,29.69,ESE,115,4.0,13.0,93,0.02,,,0.03,meteohub,2013-06-11 00:47:00,
2013-06-11 01:57:00,55.0,53.1,29.69,SSE,156,6.0,13.0,93,0.02,,,0.03,meteohub,2013-06-11 00:57:00,
2013-06-11 02:02:00,55.0,53.1,29.69,ESE,102,2.0,14.0,93,0.02,,,0.04,meteohub,2013-06-11 01:02:00,
2013-06-11 02:07:00,55.0,53.1,29.68,ESE,120,6.0,14.0,93,0.02,,,0.04,meteohub,2013-06-11 01:07:00,
2013-06-11 02:12:00,55.0,53.1,29.68,ESE,117,4.0,14.0,93,0.02,,,0.04,meteohub,2013-06-11 01:12:00,
2013-06-11 02:22:00,55.0,53.1,29.68,ESE,122,6.0,11.0,93,0.02,,,0.05,meteohub,2013-06-11 01:22:00,
2013-06-11 02:27:00,54.9,52.9,29.68,ESE,114,6.0,13.0,93,0.02,,,0.05,meteohub,2013-06-11 01:27:00,
2013-06-11 02:37:00,54.9,52.9,29.67,ESE,122,1.0,13.0,93,0.02,,,0.05,meteohub,2013-06-11 01:37:00,
2013-06-11 02:42:00,54.9,52.9,29.67,SE,134,8.0,13.0,93,0.02,,,0.06,meteohub,2013-06-11 01:42:00,
2013-06-11 02:52:00,54.7,53.1,29.67,ESE,121,6.0,13.0,94,0.02,,,0.06,meteohub,2013-06-11 01:52:00,
2013-06-11 03:02:00,54.7,52.7,29.66,ESE,123,5.0,14.0,93,0.02,,,0.06,meteohub,2013-06-11 02:02:00,
2013-06-11 03:07:00,54.7,53.1,29.66,SE,125,4.0,14.0,94,0.02,,,0.06,meteohub,2013-06-11 02:07:00,
2013-06-11 03:12:00,54.7,53.1,29.66,SE,128,9.0,14.0,94,0.02,,,0.06,meteohub,2013-06-11 02:12:00,
2013-06-11 03:17:00,54.7,53.1,29.66,SE,130,1.0,13.0,94,0.02,,,0.06,meteohub,2013-06-11 02:17:00,
2013-06-11 03:22:00,54.7,53.1,29.66,SE,124,8.0,13.0,94,0.02,,,0.06,meteohub,2013-06-11 02:22:00,
2013-06-11 03:27:00,54.7,53.1,29.65,ESE,119,4.0,14.0,94,0.02,,,0.06,meteohub,2013-06-11 02:27:00,
2013-06-11 03:32:00,54.7,53.1,29.65,ESE,121,5.0,14.0,94,0.02,,,0.06,meteohub,2013-06-11 02:32:00,
2013-06-11 03:42:00,54.7,53.1,29.65,ESE,122,4.0,15.0,94,0.02,,,0.06,meteohub,2013-06-11 02:42:00,
2013-06-11 03:47:00,54.7,53.1,29.65,ESE,121,4.0,15.0,94,0.02,,,0.07,meteohub,2013-06-11 02:47:00,
2013-06-11 03:57:00,54.7,53.1,29.64,ESE,122,9.0,10.0,94,0.02,,,0.07,meteohub,2013-06-11 02:57:00,
2013-06-11 04:02:00,54.7,53.1,29.64,SE,124,8.0,11.0,94,0.02,,,0.07,meteohub,2013-06-11 03:02:00,
2013-06-11 04:07:00,54.7,53.1,29.64,East,97,1.0,13.0,94,0.01,,,0.07,meteohub,2013-06-11 03:07:00,
2013-06-11 04:12:00,54.7,53.1,29.64,ESE,106,2.0,13.0,94,0.01,,,0.07,meteohub,2013-06-11 03:12:00,
2013-06-11 04:22:00,54.7,53.1,29.64,ESE,112,2.0,15.0,94,0.01,,,0.07,meteohub,2013-06-11 03:22:00,
2013-06-11 04:27:00,54.7,53.1,29.64,ESE,112,2.0,15.0,94,0.01,,,0.07,meteohub,2013-06-11 03:27:00,
2013-06-11 04:32:00,54.7,53.1,29.63,ESE,115,1.0,10.0,94,0.01,,,0.07,meteohub,2013-06-11 03:32:00,
2013-06-11 04:37:00,54.7,53.1,29.63,ESE,107,6.0,14.0,94,0.01,,,0.07,meteohub,2013-06-11 03:37:00,
2013-06-11 04:42:00,54.7,53.1,29.63,ESE,117,2.0,14.0,94,0.00,,,0.07,meteohub,2013-06-11 03:42:00,
2013-06-11 04:47:00,54.7,53.1,29.63,East,100,6.0,14.0,94,0.00,,,0.07,meteohub,2013-06-11 03:47:00,
2013-06-11 04:52:00,54.7,53.1,29.63,SE,138,1.0,13.0,94,0.00,,,0.07,meteohub,2013-06-11 03:52:00,
2013-06-11 05:02:00,54.7,53.1,29.63,ESE,121,9.0,14.0,94,0.01,,,0.08,meteohub,2013-06-11 04:02:00,
2013-06-11 05:07:00,54.7,53.1,29.63,SE,128,5.0,14.0,94,0.01,,,0.08,meteohub,2013-06-11 04:07:00,
2013-06-11 05:17:00,54.7,53.1,29.63,ESE,115,6.0,14.0,94,0.01,,,0.08,meteohub,2013-06-11 04:17:00,
2013-06-11 05:22:00,54.9,53.2,29.63,ESE,109,9.0,11.0,94,0.01,,,0.08,meteohub,2013-06-11 04:22:00,
2013-06-11 05:27:00,54.9,53.2,29.63,ESE,119,9.0,10.0,94,0.01,,,0.08,meteohub,2013-06-11 04:27:00,
2013-06-11 05:32:00,54.9,53.2,29.63,ESE,114,4.0,11.0,94,0.01,,,0.08,meteohub,2013-06-11 04:32:00,
2013-06-11 05:37:00,54.9,53.2,29.62,ESE,122,4.0,13.0,94,0.01,,,0.08,meteohub,2013-06-11 04:37:00,
2013-06-11 05:47:00,54.9,53.4,29.62,SE,127,8.0,13.0,95,0.01,,,0.08,meteohub,2013-06-11 04:47:00,
2013-06-11 05:52:00,54.9,53.4,29.62,ESE,116,4.0,13.0,95,0.01,,,0.08,meteohub,2013-06-11 04:52:00,
2013-06-11 05:57:00,54.9,53.4,29.63,SE,132,5.0,13.0,95,0.01,,,0.08,meteohub,2013-06-11 04:57:00,
2013-06-11 06:02:00,54.9,53.4,29.63,ESE,119,2.0,14.0,95,0.00,,,0.08,meteohub,2013-06-11 05:02:00,
2013-06-11 06:07:00,54.9,53.4,29.63,SE,128,2.0,14.0,95,0.01,,,0.09,meteohub,2013-06-11 05:07:00,
2013-06-11 06:12:00,54.9,53.4,29.63,ESE,106,4.0,14.0,95,0.01,,,0.09,meteohub,2013-06-11 05:12:00,
2013-06-11 06:17:00,54.9,53.4,29.63,ESE,123,6.0,14.0,95,0.01,,,0.09,meteohub,2013-06-11 05:17:00,
2013-06-11 06:27:00,55.0,53.6,29.63,SSE,150,1.0,11.0,95,0.01,,,0.09,meteohub,2013-06-11 05:27:00,
2013-06-11 06:32:00,55.0,53.6,29.63,ESE,120,9.0,10.0,95,0.01,,,0.09,meteohub,2013-06-11 05:32:00,
2013-06-11 06:37:00,55.0,53.6,29.63,ESE,115,2.0,10.0,95,0.01,,,0.09,meteohub,2013-06-11 05:37:00,
2013-06-11 06:42:00,55.0,53.6,29.63,ESE,116,2.0,11.0,95,0.02,,,0.09,meteohub,2013-06-11 05:42:00,
2013-06-11 06:47:00,55.0,53.6,29.63,SE,126,1.0,11.0,95,0.02,,,0.09,meteohub,2013-06-11 05:47:00,
2013-06-11 06:57:00,55.2,53.8,29.63,SE,127,2.0,10.0,95,0.02,,,0.10,meteohub,2013-06-11 05:57:00,
2013-06-11 07:02:00,55.2,53.8,29.63,ESE,119,0.0,10.0,95,0.02,,,0.10,meteohub,2013-06-11 06:02:00,
2013-06-11 07:07:00,55.2,53.8,29.63,SE,126,5.0,9.0,95,0.02,,,0.10,meteohub,2013-06-11 06:07:00,
2013-06-11 07:17:00,55.4,54.0,29.63,SE,128,1.0,9.0,95,0.02,,,0.11,meteohub,2013-06-11 06:17:00,
2013-06-11 07:22:00,55.6,54.1,29.63,SSE,154,6.0,9.0,95,0.02,,,0.11,meteohub,2013-06-11 06:22:00,
2013-06-11 07:27:00,55.6,54.1,29.63,SE,127,8.0,9.0,95,0.02,,,0.11,meteohub,2013-06-11 06:27:00,
2013-06-11 07:32:00,55.6,54.1,29.63,SE,131,2.0,9.0,95,0.02,,,0.11,meteohub,2013-06-11 06:32:00,
2013-06-11 07:42:00,55.8,54.3,29.62,East,99,4.0,10.0,95,0.02,,,0.11,meteohub,2013-06-11 06:42:00,
2013-06-11 07:47:00,55.8,54.3,29.63,SE,126,4.0,10.0,95,0.02,,,0.11,meteohub,2013-06-11 06:47:00,
2013-06-11 07:52:00,55.9,54.5,29.63,ESE,121,6.0,10.0,95,0.02,,,0.11,meteohub,2013-06-11 06:52:00,
2013-06-11 08:02:00,55.9,54.5,29.63,SE,136,2.0,11.0,95,0.01,,,0.11,meteohub,2013-06-11 07:02:00,
2013-06-11 08:07:00,55.9,54.5,29.63,SE,127,5.0,11.0,95,0.00,,,0.11,meteohub,2013-06-11 07:07:00,
2013-06-11 08:17:00,56.3,54.9,29.63,ESE,112,5.0,10.0,95,0.00,,,0.11,meteohub,2013-06-11 07:17:00,
2013-06-11 08:22:00,56.5,55.0,29.63,ESE,119,1.0,11.0,95,0.01,,,0.12,meteohub,2013-06-11 07:22:00,
2013-06-11 08:32:00,56.7,55.6,29.63,ESE,117,2.0,11.0,96,0.01,,,0.12,meteohub,2013-06-11 07:32:00,
2013-06-11 08:37:00,56.5,55.4,29.63,SE,125,1.0,10.0,96,0.01,,,0.12,meteohub,2013-06-11 07:37:00,
2013-06-11 08:42:00,56.7,55.6,29.63,ESE,113,4.0,10.0,96,0.01,,,0.12,meteohub,2013-06-11 07:42:00,
2013-06-11 08:47:00,56.7,55.6,29.63,SE,126,4.0,9.0,96,0.01,,,0.12,meteohub,2013-06-11 07:47:00,
2013-06-11 08:52:00,56.7,55.6,29.64,SE,126,0.0,9.0,96,0.01,,,0.12,meteohub,2013-06-11 07:52:00,
2013-06-11 08:57:00,56.8,55.8,29.63,SE,133,2.0,9.0,96,0.01,,,0.12,meteohub,2013-06-11 07:57:00,
2013-06-11 09:07:00,56.8,55.4,29.63,SE,128,2.0,8.0,95,0.01,,,0.12,meteohub,2013-06-11 08:07:00,
2013-06-11 09:12:00,57.0,55.9,29.63,SE,124,1.0,8.0,96,0.01,,,0.12,meteohub,2013-06-11 08:12:00,
2013-06-11 09:17:00,57.2,56.1,29.64,ESE,119,1.0,9.0,96,0.00,,,0.12,meteohub,2013-06-11 08:17:00,
2013-06-11 09:22:00,57.2,56.1,29.64,ESE,119,0.0,9.0,96,0.00,,,0.12,meteohub,2013-06-11 08:22:00,
2013-06-11 09:27:00,57.4,56.3,29.64,ESE,119,0.0,9.0,96,0.00,,,0.12,meteohub,2013-06-11 08:27:00,
2013-06-11 09:32:00,57.4,56.3,29.64,ESE,119,4.0,9.0,96,0.00,,,0.12,meteohub,2013-06-11 08:32:00,
2013-06-11 09:37:00,57.2,56.1,29.64,ESE,119,1.0,5.0,96,0.00,,,0.12,meteohub,2013-06-11 08:37:00,
2013-06-11 09:47:00,57.6,56.5,29.64,ESE,119,0.0,5.0,96,0.00,,,0.12,meteohub,2013-06-11 08:47:00,
2013-06-11 09:52:00,57.7,56.7,29.64,ESE,119,1.0,5.0,96,0.00,,,0.12,meteohub,2013-06-11 08:52:00,
2013-06-11 09:57:00,58.5,57.4,29.64,ESE,119,0.0,5.0,96,0.00,,,0.12,meteohub,2013-06-11 08:57:00,
2013-06-11 10:07:00,59.2,58.1,29.64,ESE,119,0.0,4.0,96,0.00,,,0.12,meteohub,2013-06-11 09:07:00,
2013-06-11 10:12:00,59.5,58.5,29.64,ESE,119,0.0,4.0,96,0.00,,,0.12,meteohub,2013-06-11 09:12:00,
2013-06-11 10:17:00,60.1,59.0,29.64,ESE,119,0.0,4.0,96,0.00,,,0.12,meteohub,2013-06-11 09:17:00,
2013-06-11 10:22:00,60.1,59.0,29.64,South,173,0.0,4.0,96,0.00,,,0.12,meteohub,2013-06-11 09:22:00,
2013-06-11 10:27:00,59.9,58.5,29.64,SW,222,1.0,4.0,95,0.00,,,0.12,meteohub,2013-06-11 09:27:00,
2013-06-11 10:32:00,59.7,58.3,29.64,WSW,242,2.0,8.0,95,0.00,,,0.12,meteohub,2013-06-11 09:32:00,
2013-06-11 10:42:00,59.7,58.3,29.64,WSW,242,2.0,8.0,95,0.00,,,0.12,meteohub,2013-06-11 09:42:00,
2013-06-11 10:47:00,59.7,58.3,29.64,WSW,242,2.0,2.0,95,0.00,,,0.12,meteohub,2013-06-11 09:47:00,
2013-06-11 10:57:00,59.7,58.3,29.64,WSW,242,2.0,2.0,95,0.00,,,0.12,meteohub,2013-06-11 09:57:00,
2013-06-11 11:02:00,59.7,58.3,29.64,WSW,242,2.0,2.0,95,0.00,,,0.12,meteohub,2013-06-11 10:02:00,
2013-06-11 11:07:00,59.7,58.3,29.64,WSW,242,2.0,2.0,95,0.00,,,0.12,meteohub,2013-06-11 10:07:00,
2013-06-11 11:12:00,59.7,58.3,29.64,WSW,242,2.0,2.0,95,0.00,,,0.12,meteohub,2013-06-11 10:12:00,
2013-06-11 11:17:00,59.7,58.3,29.64,WSW,242,2.0,2.0,95,0.00,,,0.12,meteohub,2013-06-11 10:17:00,
2013-06-11 11:22:00,59.7,58.3,29.64,WSW,242,2.0,2.0,95,0.00,,,0.12,meteohub,2013-06-11 10:22:00,
2013-06-11 11:27:00,59.7,58.3,29.64,WSW,242,2.0,2.0,95,0.00,,,0.12,meteohub,2013-06-11 10:27:00,
2013-06-11 11:32:00,59.7,58.3,29.64,WSW,242,2.0,2.0,95,0.00,,,0.12,meteohub,2013-06-11 10:32:00,
2013-06-11 11:37:00,59.7,58.3,29.64,WSW,242,2.0,2.0,95,0.00,,,0.12,meteohub,2013-06-11 10:37:00,
2013-06-11 11:42:00,59.7,58.3,29.64,WSW,242,2.0,2.0,95,0.00,,,0.12,meteohub,2013-06-11 10:42:00,
2013-06-11 11:47:00,59.7,58.3,29.64,WSW,242,2.0,2.0,95,0.00,,,0.12,meteohub,2013-06-11 10:47:00,
2013-06-11 11:52:00,59.7,58.3,29.64,WSW,242,2.0,2.0,95,0.00,,,0.12,meteohub,2013-06-11 10:52:00,
2013-06-11 11:57:00,61.3,57.2,29.66,WSW,239,6.0,6.0,86,0.00,,,0.12,meteohub,2013-06-11 10:57:00,
2013-06-11 12:02:00,61.3,57.7,29.66,SW,217,4.0,14.0,88,0.15,,,0.27,meteohub,2013-06-11 11:02:00,
2013-06-11 12:07:00,61.0,57.0,29.67,West,261,10.0,14.0,87,0.15,,,0.27,meteohub,2013-06-11 11:07:00,
2013-06-11 12:12:00,61.5,57.9,29.67,WSW,250,8.0,14.0,88,0.15,,,0.27,meteohub,2013-06-11 11:12:00,
2013-06-11 12:17:00,61.2,57.0,29.67,South,180,13.0,16.0,86,0.15,,,0.27,meteohub,2013-06-11 11:17:00,
2013-06-11 12:22:00,61.5,57.4,29.67,SW,236,6.0,16.0,86,0.15,,,0.27,meteohub,2013-06-11 11:22:00,
2013-06-11 12:27:00,62.2,57.7,29.67,West,265,4.0,15.0,85,0.15,,,0.27,meteohub,2013-06-11 11:27:00,
2013-06-11 12:32:00,62.1,57.6,29.67,West,259,2.0,15.0,85,0.15,,,0.27,meteohub,2013-06-11 11:32:00,
2013-06-11 12:37:00,62.1,57.6,29.68,West,262,4.0,13.0,85,0.15,,,0.27,meteohub,2013-06-11 11:37:00,
2013-06-11 12:42:00,61.2,56.3,29.68,WSW,250,2.0,13.0,84,0.15,,,0.27,meteohub,2013-06-11 11:42:00,
2013-06-11 12:47:00,60.3,55.8,29.68,WSW,246,8.0,13.0,85,0.15,,,0.27,meteohub,2013-06-11 11:47:00,
2013-06-11 12:52:00,60.1,55.9,29.68,WNW,284,2.0,13.0,86,0.15,,,0.27,meteohub,2013-06-11 11:52:00,
2013-06-11 12:57:00,59.5,55.4,29.68,SSW,201,8.0,13.0,86,0.15,,,0.27,meteohub,2013-06-11 11:57:00,
2013-06-11 13:02:00,59.9,55.9,29.68,WSW,242,5.0,13.0,87,0.00,,,0.27,meteohub,2013-06-11 12:02:00,
2013-06-11 13:12:00,61.2,56.7,29.68,NNE,17,2.0,13.0,85,0.00,,,0.27,meteohub,2013-06-11 12:12:00,
2013-06-11 13:17:00,61.9,57.4,29.68,NW,314,5.0,13.0,85,0.00,,,0.27,meteohub,2013-06-11 12:17:00,
2013-06-11 13:27:00,61.0,55.8,29.70,WSW,240,10.0,14.0,83,0.00,,,0.27,meteohub,2013-06-11 12:27:00,
2013-06-11 13:32:00,60.3,54.7,29.70,SW,231,9.0,14.0,82,0.00,,,0.27,meteohub,2013-06-11 12:32:00,
2013-06-11 13:37:00,59.9,54.3,29.70,WSW,239,2.0,13.0,82,0.00,,,0.27,meteohub,2013-06-11 12:37:00,
2013-06-11 13:42:00,60.3,54.7,29.70,SSW,205,10.0,13.0,82,0.00,,,0.27,meteohub,2013-06-11 12:42:00,
2013-06-11 13:47:00,61.0,55.4,29.70,WSW,245,2.0,14.0,82,0.00,,,0.27,meteohub,2013-06-11 12:47:00,
2013-06-11 13:57:00,63.3,56.7,29.69,West,259,5.0,14.0,79,0.00,,,0.27,meteohub,2013-06-11 12:57:00,
2013-06-11 14:02:00,63.1,55.0,29.69,SW,223,5.0,10.0,75,0.00,,,0.27,meteohub,2013-06-11 13:02:00,
2013-06-11 14:12:00,62.4,54.7,29.69,WSW,238,0.0,10.0,76,0.00,,,0.27,meteohub,2013-06-11 13:12:00,
2013-06-11 14:22:00,63.1,55.0,29.70,WNW,292,2.0,10.0,75,0.00,,,0.27,meteohub,2013-06-11 13:22:00,
2013-06-11 14:32:00,61.2,54.0,29.70,WSW,243,1.0,13.0,77,0.00,,,0.27,meteohub,2013-06-11 13:32:00,
2013-06-11 14:37:00,61.0,53.8,29.70,West,272,6.0,13.0,77,0.00,,,0.27,meteohub,2013-06-11 13:37:00,
2013-06-11 14:47:00,61.3,53.8,29.70,WSW,248,1.0,13.0,76,0.00,,,0.27,meteohub,2013-06-11 13:47:00,
2013-06-11 14:52:00,61.2,53.2,29.70,SW,232,2.0,13.0,75,0.00,,,0.27,meteohub,2013-06-11 13:52:00,
2013-06-11 14:57:00,61.2,53.6,29.70,South,172,1.0,11.0,76,0.00,,,0.27,meteohub,2013-06-11 13:57:00,
2013-06-11 15:02:00,61.2,53.6,29.70,NNW,333,2.0,11.0,76,0.00,,,0.27,meteohub,2013-06-11 14:02:00,
2013-06-11 15:12:00,60.1,52.5,29.70,SW,228,2.0,11.0,76,0.00,,,0.27,meteohub,2013-06-11 14:12:00,
2013-06-11 15:17:00,60.3,53.4,29.70,WSW,247,6.0,11.0,78,0.00,,,0.27,meteohub,2013-06-11 14:17:00,
2013-06-11 15:22:00,60.1,53.2,29.70,West,266,1.0,10.0,78,0.00,,,0.27,meteohub,2013-06-11 14:22:00,
2013-06-11 15:27:00,60.1,53.6,29.70,SSW,196,5.0,11.0,79,0.00,,,0.27,meteohub,2013-06-11 14:27:00,
2013-06-11 15:32:00,59.9,53.4,29.70,West,281,2.0,11.0,79,0.00,,,0.27,meteohub,2013-06-11 14:32:00,
2013-06-11 15:37:00,60.4,54.3,29.71,SW,219,4.0,10.0,80,0.00,,,0.27,meteohub,2013-06-11 14:37:00,
2013-06-11 15:47:00,61.0,54.7,29.71,WSW,238,6.0,10.0,80,0.00,,,0.27,meteohub,2013-06-11 14:47:00,
2013-06-11 15:52:00,60.4,54.0,29.71,SW,218,6.0,13.0,79,0.00,,,0.27,meteohub,2013-06-11 14:52:00,
2013-06-11 15:57:00,60.1,53.6,29.71,NW,323,0.0,13.0,79,0.00,,,0.27,meteohub,2013-06-11 14:57:00,
2013-06-11 16:02:00,59.5,53.8,29.71,WSW,240,4.0,13.0,81,0.00,,,0.27,meteohub,2013-06-11 15:02:00,
2013-06-11 16:07:00,59.7,54.0,29.71,SSW,209,2.0,11.0,81,0.00,,,0.27,meteohub,2013-06-11 15:07:00,
2013-06-11 16:17:00,59.9,54.1,29.71,SW,236,1.0,10.0,81,0.00,,,0.27,meteohub,2013-06-11 15:17:00,
2013-06-11 16:27:00,60.3,54.1,29.71,SW,236,2.0,10.0,80,0.00,,,0.27,meteohub,2013-06-11 15:27:00,
2013-06-11 16:32:00,59.9,54.1,29.71,NW,322,5.0,9.0,81,0.00,,,0.27,meteohub,2013-06-11 15:32:00,
2013-06-11 16:37:00,59.4,53.8,29.70,WNW,291,4.0,9.0,82,0.00,,,0.27,meteohub,2013-06-11 15:37:00,
2013-06-11 16:47:00,59.4,53.2,29.70,SSW,203,2.0,10.0,80,0.00,,,0.27,meteohub,2013-06-11 15:47:00,
2013-06-11 16:52:00,59.4,53.2,29.70,WSW,241,5.0,9.0,80,0.00,,,0.27,meteohub,2013-06-11 15:52:00,
2013-06-11 17:02:00,59.0,53.2,29.70,SW,227,2.0,8.0,81,0.00,,,0.27,meteohub,2013-06-11 16:02:00,
2013-06-11 17:07:00,59.0,54.1,29.70,WNW,286,4.0,6.0,84,0.00,,,0.27,meteohub,2013-06-11 16:07:00,
2013-06-11 17:12:00,58.6,53.4,29.71,WSW,241,2.0,8.0,83,0.00,,,0.27,meteohub,2013-06-11 16:12:00,
2013-06-11 17:17:00,58.5,54.0,29.70,WSW,257,0.0,8.0,85,0.00,,,0.27,meteohub,2013-06-11 16:17:00,
2013-06-11 17:27:00,58.1,54.3,29.70,NW,306,0.0,6.0,87,0.02,,,0.28,meteohub,2013-06-11 16:27:00,
2013-06-11 17:32:00,57.7,54.1,29.71,NW,313,1.0,6.0,88,0.02,,,0.28,meteohub,2013-06-11 16:32:00,
2013-06-11 17:37:00,57.7,54.1,29.70,WSW,256,1.0,6.0,88,0.02,,,0.29,meteohub,2013-06-11 16:37:00,
2013-06-11 17:47:00,57.4,54.1,29.70,SW,215,0.0,5.0,89,0.02,,,0.29,meteohub,2013-06-11 16:47:00,
2013-06-11 17:52:00,57.4,54.1,29.70,WNW,292,6.0,6.0,89,0.03,,,0.30,meteohub,2013-06-11 16:52:00,
2013-06-11 17:57:00,57.2,54.3,29.70,WNW,298,5.0,6.0,90,0.03,,,0.30,meteohub,2013-06-11 16:57:00,
2013-06-11 18:02:00,57.0,54.1,29.70,WNW,297,2.0,6.0,90,0.03,,,0.30,meteohub,2013-06-11 17:02:00,
2013-06-11 18:07:00,57.0,54.1,29.70,West,259,5.0,8.0,90,0.03,,,0.30,meteohub,2013-06-11 17:07:00,
2013-06-11 18:12:00,57.2,54.7,29.70,WNW,302,2.0,8.0,91,0.04,,,0.31,meteohub,2013-06-11 17:12:00,
2013-06-11 18:17:00,57.0,54.5,29.70,NW,304,1.0,8.0,91,0.04,,,0.31,meteohub,2013-06-11 17:17:00,
2013-06-11 18:22:00,56.8,54.3,29.70,NW,304,5.0,5.0,91,0.03,,,0.31,meteohub,2013-06-11 17:22:00,
2013-06-11 18:32:00,56.8,54.3,29.70,West,279,5.0,5.0,91,0.02,,,0.31,meteohub,2013-06-11 17:32:00,
2013-06-11 18:37:00,57.0,54.5,29.69,WNW,290,2.0,5.0,91,0.02,,,0.31,meteohub,2013-06-11 17:37:00,
2013-06-11 18:47:00,57.0,54.5,29.69,WNW,289,0.0,6.0,91,0.02,,,0.31,meteohub,2013-06-11 17:47:00,
2013-06-11 18:52:00,57.2,54.9,29.69,WNW,289,5.0,6.0,92,0.02,,,0.31,meteohub,2013-06-11 17:52:00,
2013-06-11 18:57:00,57.0,54.5,29.69,WNW,290,5.0,6.0,91,0.02,,,0.31,meteohub,2013-06-11 17:57:00,
2013-06-11 19:02:00,56.8,54.0,29.69,WNW,297,4.0,8.0,90,0.02,,,0.31,meteohub,2013-06-11 18:02:00,
2013-06-11 19:12:00,56.8,53.6,29.69,WNW,290,5.0,8.0,89,0.01,,,0.31,meteohub,2013-06-11 18:12:00,
2013-06-11 19:17:00,56.8,53.6,29.69,WNW,290,4.0,8.0,89,0.01,,,0.31,meteohub,2013-06-11 18:17:00,
2013-06-11 19:22:00,56.8,53.6,29.69,WNW,290,4.0,6.0,89,0.01,,,0.31,meteohub,2013-06-11 18:22:00,
2013-06-11 19:27:00,56.8,54.0,29.69,WNW,290,2.0,6.0,90,0.01,,,0.31,meteohub,2013-06-11 18:27:00,
2013-06-11 19:32:00,56.7,53.8,29.69,WNW,290,1.0,6.0,90,0.01,,,0.31,meteohub,2013-06-11 18:32:00,
2013-06-11 19:37:00,56.7,53.8,29.68,WNW,290,2.0,6.0,90,0.01,,,0.31,meteohub,2013-06-11 18:37:00,
2013-06-11 19:42:00,56.5,53.6,29.68,WNW,290,0.0,6.0,90,0.01,,,0.32,meteohub,2013-06-11 18:42:00,
2013-06-11 19:52:00,56.5,53.6,29.68,WNW,290,0.0,6.0,90,0.01,,,0.32,meteohub,2013-06-11 18:52:00,
2013-06-11 19:57:00,56.5,53.6,29.68,WNW,290,0.0,5.0,90,0.01,,,0.32,meteohub,2013-06-11 18:57:00,
2013-06-11 20:07:00,56.3,53.4,29.68,WNW,290,1.0,2.0,90,0.01,,,0.32,meteohub,2013-06-11 19:07:00,
2013-06-11 20:17:00,55.9,53.1,29.68,North,355,1.0,5.0,90,0.01,,,0.32,meteohub,2013-06-11 19:17:00,
2013-06-11 20:22:00,55.8,52.9,29.68,North,355,2.0,5.0,90,0.02,,,0.33,meteohub,2013-06-11 19:22:00,
2013-06-11 20:27:00,55.8,52.9,29.68,NNE,18,4.0,5.0,90,0.02,,,0.33,meteohub,2013-06-11 19:27:00,
2013-06-11 20:32:00,55.4,52.2,29.68,North,5,0.0,6.0,89,0.02,,,0.33,meteohub,2013-06-11 19:32:00,
2013-06-11 20:37:00,55.2,52.0,29.68,North,5,1.0,6.0,89,0.02,,,0.33,meteohub,2013-06-11 19:37:00,
2013-06-11 20:42:00,55.0,51.8,29.68,North,5,2.0,6.0,89,0.01,,,0.33,meteohub,2013-06-11 19:42:00,
2013-06-11 20:47:00,55.2,52.0,29.68,North,5,1.0,4.0,89,0.01,,,0.33,meteohub,2013-06-11 19:47:00,
2013-06-11 20:52:00,55.2,52.0,29.67,North,5,2.0,5.0,89,0.01,,,0.33,meteohub,2013-06-11 19:52:00,
2013-06-11 20:57:00,55.0,52.2,29.67,North,5,2.0,5.0,90,0.01,,,0.33,meteohub,2013-06-11 19:57:00,
2013-06-11 21:02:00,55.0,52.2,29.67,North,355,1.0,5.0,90,0.02,,,0.34,meteohub,2013-06-11 20:02:00,
2013-06-11 21:12:00,54.9,52.3,29.67,North,11,4.0,6.0,91,0.02,,,0.35,meteohub,2013-06-11 20:12:00,
2013-06-11 21:17:00,54.9,52.3,29.67,North,10,1.0,6.0,91,0.02,,,0.35,meteohub,2013-06-11 20:17:00,
2013-06-11 21:27:00,54.3,51.8,29.67,NE,36,1.0,8.0,91,0.02,,,0.35,meteohub,2013-06-11 20:27:00,
2013-06-11 21:32:00,54.0,51.4,29.67,NE,36,1.0,8.0,91,0.02,,,0.35,meteohub,2013-06-11 20:32:00,
2013-06-11 21:37:00,54.0,51.4,29.67,NE,36,2.0,5.0,91,0.02,,,0.35,meteohub,2013-06-11 20:37:00,
2013-06-11 21:42:00,54.0,51.4,29.67,NE,36,0.0,4.0,91,0.03,,,0.36,meteohub,2013-06-11 20:42:00,
2013-06-11 21:52:00,54.1,51.8,29.67,NE,36,1.0,4.0,92,0.03,,,0.36,meteohub,2013-06-11 20:52:00,
2013-06-11 21:57:00,54.1,51.8,29.68,NE,36,0.0,4.0,92,0.03,,,0.37,meteohub,2013-06-11 20:57:00,
2013-06-11 22:07:00,54.1,51.8,29.68,NE,36,0.0,4.0,92,0.05,,,0.39,meteohub,2013-06-11 21:07:00,
2013-06-11 22:12:00,54.1,51.8,29.68,NNE,15,4.0,5.0,92,0.05,,,0.39,meteohub,2013-06-11 21:12:00,
2013-06-11 22:17:00,54.0,52.0,29.68,NNE,15,1.0,5.0,93,0.06,,,0.41,meteohub,2013-06-11 21:17:00,
2013-06-11 22:22:00,53.8,51.8,29.68,NNW,338,5.0,5.0,93,0.06,,,0.42,meteohub,2013-06-11 21:22:00,
2013-06-11 22:27:00,53.8,51.8,29.69,NNW,338,2.0,8.0,93,0.07,,,0.43,meteohub,2013-06-11 21:27:00,
2013-06-11 22:32:00,53.8,51.8,29.69,NNW,338,1.0,8.0,93,0.09,,,0.44,meteohub,2013-06-11 21:32:00,
2013-06-11 22:42:00,53.8,51.8,29.68,North,355,0.0,5.0,93,0.10,,,0.46,meteohub,2013-06-11 21:42:00,
2013-06-11 22:47:00,53.4,51.8,29.69,NW,325,4.0,5.0,94,0.10,,,0.46,meteohub,2013-06-11 21:47:00,
2013-06-11 22:52:00,53.4,51.8,29.69,NNW,341,1.0,8.0,94,0.11,,,0.47,meteohub,2013-06-11 21:52:00,
2013-06-11 22:57:00,53.2,51.3,29.69,NNW,341,2.0,8.0,93,0.12,,,0.49,meteohub,2013-06-11 21:57:00,
2013-06-11 23:02:00,53.4,51.8,29.68,NNE,20,2.0,8.0,94,0.12,,,0.50,meteohub,2013-06-11 22:02:00,
2013-06-11 23:07:00,53.6,52.0,29.68,NE,46,6.0,6.0,94,0.11,,,0.50,meteohub,2013-06-11 22:07:00,
2013-06-11 23:12:00,53.2,51.6,29.68,NE,46,2.0,9.0,94,0.10,,,0.50,meteohub,2013-06-11 22:12:00,
2013-06-11 23:17:00,53.2,51.6,29.68,NE,53,1.0,9.0,94,0.09,,,0.51,meteohub,2013-06-11 22:17:00,
2013-06-11 23:22:00,53.2,51.6,29.68,NE,37,4.0,9.0,94,0.09,,,0.51,meteohub,2013-06-11 22:22:00,
2013-06-11 23:27:00,53.1,51.4,29.68,NNE,33,2.0,6.0,94,0.09,,,0.52,meteohub,2013-06-11 22:27:00,
2013-06-11 23:32:00,52.9,51.3,29.68,NNE,33,5.0,8.0,94,0.08,,,0.52,meteohub,2013-06-11 22:32:00,
2013-06-11 23:42:00,53.1,51.4,29.67,NNE,30,0.0,8.0,94,0.06,,,0.52,meteohub,2013-06-11 22:42:00,
2013-06-11 23:52:00,53.1,51.4,29.67,NNE,14,2.0,6.0,94,0.04,,,0.52,meteohub,2013-06-11 22:52:00,